Regional Weather Roundup
Issued by NWS

Home | Current Version | Previous Version | Graphics & Text | Print | Product List | Glossary On
Versions: 1 2 3 4 5 6 7 8 9 10 11 12 13 14 15 16 17 18 19 20 21 22 23 24 25 26 27 28 29 30 31 32 33 34 35 36 37 38 39 40 41 42 43 44 45 46 47 48 49 50
000
ASUS43 KLOT 241103
RWRIL

ILLINOIS REGIONAL WEATHER ROUNDUP
NATIONAL WEATHER SERVICE CHICAGO/ROMEOVILLE IL
600 AM CDT TUE APR 24 2018

NOTE: "FAIR" INDICATES FEW OR NO CLOUDS BELOW 12,000 FEET WITH NO
SIGNIFICANT WEATHER AND/OR OBSTRUCTIONS TO VISIBILITY.

* THESE STATIONS ARE NOT UNDER NWS QUALITY CONTROL. THEY ALSO MAY NOT
  REPORT WEATHER SUCH AS PRECIPITATION OR FOG.

ILZ001-002-007-009-015-016-024-241200-
NORTHWEST ILLINOIS

CITY           SKY/WX    TMP DP  RH WIND       PRES   REMARKS
MOLINE         FAIR      47  34  60 CALM      30.07R
STERLING*      CLOUDY    50  31  48 N5        30.08R
SAVANNA*       FAIR      46  36  69 CALM      30.08S
$$

ILZ003-004-008-010-011-017-018-241200-
NORTH CENTRAL ILLINOIS

CITY           SKY/WX    TMP DP  RH WIND       PRES   REMARKS
ROCKFORD       CLOUDY    48  29  47 CALM      30.09S
FREEPORT*      FAIR      44  32  62 NW5       30.10R
ROCHELLE*      CLOUDY    49  31  48 NE6       30.07S
DE KALB*       CLOUDY    49  32  52 N6        30.07R
PERU*          CLOUDY    52  39  59 N7        30.05S
$$

ILZ005-006-012>014-019>023-241200-
NORTHEAST ILLINOIS

CITY           SKY/WX    TMP DP  RH WIND       PRES   REMARKS
CHICAGO-OHARE  CLOUDY    48  35  60 NE7       30.04F
CHICAGO-MIDWAY MOCLDY    51  39  63 NE8       30.05S
AURORA         CLOUDY    49  35  58 N7        30.05R
LANSING*       CLOUDY    43  42  97 CALM      30.05R
JOLIET*        CLOUDY    50  45  82 NE3       30.05R
WAUKEGAN       CLOUDY    46  33  60 N3        30.06S
DUPAGE AIRPORT CLOUDY    47  38  71 N6        30.04F
KANKAKEE*      CLOUDY    47  46  97 N6        30.04S FOG
WHEELING       CLOUDY    48  35  60 N3        30.07F
MORRIS*        CLOUDY    48  44  86 CALM      30.04R
ROMEOVILLE*    CLOUDY    47  42  81 NE5       30.05R
NORTHERLY ISL    N/A     44  36  73 MISG        N/A
$$

LMZ740>746-241200-
SOUTHERN LAKE MICHIGAN

STATION/POSITION SKY/WX   TEMP    WIND        PRES    VSBY  WAVE
                          AIR SEA DIR/SP/G                  HT/PER
                          (F)     (DEG/KT/KT) (MB)    (MI)  (FT/S)
HARRISON CRIB              41     340/  9/  9   N/A
BURNHAM HARBOR             43     360/  5/  8   N/A
CALUMET HARBOR             42     330/  6/  8 1017.2R
BURNS HARBOR               43      70/  5/  6 1018.3S
MICHIGAN CITY              44      30/  5/  6   N/A
ST. JOSEPH                 49 42  100/  4/  6 1018.3F         1/ 4
$$

ILZ025>027-034>036-040-047-049-050-058-095>099-241200-
WEST-CENTRAL ILLINOIS

CITY           SKY/WX    TMP DP  RH WIND       PRES   REMARKS
QUINCY         CLOUDY    53  51  93 N8        30.04R
GALESBURG*     CLOUDY    54  46  76 N7        30.08R
MACOMB*        CLOUDY    51  47  87 N5        30.07R
JACKSONVILLE*  CLOUDY    52  51  96 N9        30.02S FOG
PITTSFIELD*    CLOUDY    55  55  99 N7        30.04R FOG
$$

ILZ028>032-037-038-041>044-048-051>054-059>061-241200-
CENTRAL ILLINOIS

CITY           SKY/WX    TMP DP  RH WIND       PRES   REMARKS
PONTIAC        CLOUDY    50  49  98 NE8       30.04R FOG
BLOOMINGTON    FOG       50  50 100 NE10      30.03R VSB 1
DECATUR        CLOUDY    53  53 100 NE8       29.99R
PEORIA         CLOUDY    51  48  89 N3        30.04S
LACON*         CLOUDY    50  43  77 CALM      30.04S
LINCOLN*       CLOUDY    53  53 100 N5        30.02R FOG
SPRINGFIELD    CLOUDY    54  53  97 N9        30.01R FOG
TAYLORVILLE    CLOUDY    53  53 100 N6        30.00R FOG
$$

ILZ033-039-045-046-055>057-062-063-241200-
EAST-CENTRAL ILLINOIS

CITY           SKY/WX    TMP DP  RH WIND       PRES   REMARKS
CHAMPAIGN      CLOUDY    51  50  96 NE9       29.99S
DANVILLE*      CLOUDY    50  50 100 NE7       29.97S
RANTOUL*       CLOUDY    52  52  99 N8        30.00S
MATTOON        LGT RAIN  52  51  97 NE8       29.97R FOG
PARIS*         CLOUDY    51  50  96 NE8       29.99S
$$

ILZ079-100>102-241200-
SOUTHWEST ILLINOIS

CITY           SKY/WX    TMP DP  RH WIND       PRES   REMARKS
ALTON          CLOUDY    54  54 100 NW6       29.99R FOG
CAHOKIA*       CLOUDY    55  53  93 NW13      29.98R
SPARTA*        LGT RAIN  54  54 100 NW5       29.97R
$$

ILZ064>066-069>071-074>076-080>082-084>086-088>090-092>094-241200-
SOUTH-CENTRAL ILLINOIS

CITY           SKY/WX    TMP DP  RH WIND       PRES   REMARKS
CARBONDALE     CLOUDY    56  54  93 N5        29.94S
CAIRO*         CLOUDY    55  55 100 N3        29.93S FOG
EFFINGHAM*     CLOUDY    53  53 100 N3        29.99R
MARION         CLOUDY    54  54  98 N5        29.95R FOG
MT. VERNON     CLOUDY    54  53  97 N3        29.95R
CENTRALIA*     CLOUDY    56  55  97 N3        29.95R
SALEM*         CLOUDY    55  54  94 N3        29.96R
METROPOLIS*    CLOUDY    55  54  99 NW3       29.94R
$$

ILZ067-068-072-073-078-083-087-091-241200-
SOUTHEAST ILLINOIS

CITY           SKY/WX    TMP DP  RH WIND       PRES   REMARKS
LAWRENCEVILLE  CLOUDY    54  52  93 MISG      29.95S
FLORA*         MOCLDY    53  51  94 N5        29.96R
FAIRFIELD*     CLOUDY    53  52  99 N3        29.94R
HARRISBURG*    CLOUDY    54  54 100 N6        29.94R FOG
ROBINSON*      CLOUDY    52  51  99 N7        29.96S
CARMI*         RAIN      54  54 100 N7        29.93R
$$

ABBREVIATIONS USED IN REMARKS
   TC - TEMPERATURE IN CELSIUS
  WCI - WIND CHILL INDEX
   HX - HEAT INDEX
  VSB - VISIBILITY
$$





USA.gov is the U.S. government's official web portal to all federal, state and local government web resources and services.